Shaktoolik Airport, AK

5:31 PM AKDT on October 20, 2017 (GMT -0800)
Shaktoolik Airport

Weather History for PFSH - August, 2014

Change the Weather History Date:

Thursday, August 21, 2014

  Actual Average (PAUN) Record (PAUN)
Temperature  
Mean Temperature 58 °F -  
Max Temperature 60 °F 57 °F 85 °F (1977)
Min Temperature 54 °F 44 °F 34 °F (1980)
Degree Days  
Heating Degree Days 8    
Growing Degree Days 8 (Base 50)    
Moisture  
Dew Point 50 °F    
Average Humidity 77    
Maximum Humidity 87    
Minimum Humidity 62    
Precipitation  
Precipitation 0.01 in - - ()
Sea Level Pressure  
Sea Level Pressure 30.26 in    
Wind  
Wind Speed 7 mph (West)    
Max Wind Speed 15 mph    
Max Gust Speed 20 mph    
Visibility 10 miles    
Events Rain    
Averages and records for this station are not official NWS values.
T = Trace of Precipitation, MM = Missing Value Source: NWS Daily Summary

Daily Weather History Graph

Daily Weather History Graph

Search for Another Location

Airport or City:

Trip Planner

Search our weather history database for the weather conditions in past years. The results will help you decide how hot, cold, wet, or windy it might be!

Date:

Astronomy

Aug. 21, 2014 Rise Set
Actual Time 6:53 AM AKDT 10:39 PM AKDT
Civil Twilight 5:53 AM AKDT 11:39 PM AKDT
Nautical Twilight 4:10 AM AKDT 1:18 AM AKDT
Astronomical Twilight Sun does not rise Sun does not rise
Moon 2:54 AM AKDT 8:47 PM AKDT
Length of Visible Light 17h 46m
Length of Day
15h 45m
Waning Crescent, 12% of the Moon is Illuminated
Aug 21
Waning Crescent
Aug 25
New
Sep 2
First Quarter
Sep 8
Full
Sep 15
Last Quarter

Hourly Weather History & Observations

Time (AKDT) Temp. Dew Point Humidity Pressure Visibility Wind Dir Wind Speed Gust Speed Precip Events Conditions
12:58 AM 57.0 °F 51.1 °F 81% 30.25 in 10.0 mi WSW 5.8 mph - N/A   Overcast
2:08 AM 57.2 °F 51.8 °F 82% 30.21 in 10.0 mi WNW 8.1 mph - 0.00 in Rain Light Rain
2:22 AM 55.4 °F 50.0 °F 82% 30.21 in 10.0 mi WNW 10.4 mph - 0.01 in Rain Rain
2:58 AM 55.9 °F 52.0 °F 87% 30.26 in 10.0 mi West 6.9 mph - 0.01 in   Overcast
3:07 AM 57.2 °F 51.8 °F 82% 30.21 in 10.0 mi West 8.1 mph - N/A   Overcast
3:16 AM 57.2 °F 51.8 °F 82% 30.22 in 10.0 mi West 8.1 mph - N/A   Overcast
3:58 AM 57.0 °F 51.1 °F 81% 30.27 in 10.0 mi WSW 12.7 mph 19.6 mph N/A   Mostly Cloudy
4:58 AM 55.9 °F 50.0 °F 80% 30.27 in 10.0 mi West 9.2 mph 18.4 mph N/A   Scattered Clouds
5:33 AM 57.2 °F 50.0 °F 77% 30.21 in 10.0 mi West 12.7 mph 19.6 mph N/A   Mostly Cloudy
5:44 AM 55.4 °F 50.0 °F 82% 30.21 in 10.0 mi West 9.2 mph - N/A   Mostly Cloudy
5:58 AM 55.9 °F 48.9 °F 77% 30.27 in 10.0 mi West 15.0 mph 19.6 mph N/A   Mostly Cloudy
6:58 AM 55.9 °F 50.0 °F 80% 30.27 in 10.0 mi WNW 9.2 mph - 0.00 in   Overcast
8:58 AM 55.0 °F 51.1 °F 86% 30.27 in 10.0 mi Calm Calm - N/A   Overcast
9:58 AM 55.0 °F 48.9 °F 80% 30.29 in 10.0 mi NW 3.5 mph - N/A   Overcast
11:58 AM 57.0 °F 50.0 °F 77% 30.30 in 10.0 mi SSW 6.9 mph - N/A   Overcast
12:58 PM 57.0 °F 52.0 °F 83% 30.30 in 10.0 mi SW 4.6 mph - 0.00 in Rain Light Rain
1:58 PM 57.0 °F 50.0 °F 77% 30.29 in 10.0 mi WSW 3.5 mph - N/A   Overcast
2:58 PM 59.0 °F 48.0 °F 67% 30.28 in 10.0 mi SW 5.8 mph - N/A   Overcast
3:58 PM 59.0 °F 46.9 °F 64% 30.28 in 10.0 mi SW 6.9 mph - N/A   Clear
4:58 PM 60.1 °F 46.9 °F 62% 30.27 in 10.0 mi SW 4.6 mph - N/A   Mostly Cloudy
5:58 PM 60.1 °F 48.0 °F 64% 30.26 in 10.0 mi SW 5.8 mph - N/A   Clear
6:58 PM 59.0 °F 48.0 °F 67% 30.25 in 10.0 mi Variable 6.9 mph - N/A   Clear
8:58 PM 59.0 °F 48.0 °F 67% 30.27 in 10.0 mi Variable 6.9 mph - N/A   Clear
9:58 PM 57.9 °F 48.0 °F 70% 30.27 in 10.0 mi West 6.9 mph - N/A   Clear
10:58 PM 57.0 °F 46.9 °F 69% 30.27 in 10.0 mi NNW 4.6 mph - N/A   Clear
11:58 PM 54.0 °F 50.0 °F 86% 30.27 in 10.0 mi Calm Calm - N/A   Clear